Regional Weather Roundup
Issued by NWS Upton, NY

Current Version | Previous Version | Graphics & Text | Print | Product List | Glossary Off
Versions: 1 2 3 4 5 6 7 8 9 10 11 12 13 14 15 16 17 18 19 20 21 22 23 24 25 26 27 28 29 30 31 32 33 34 35 36 37 38 39 40 41 42 43 44 45 46 47 48 49 50

000
ASUS41 KOKX 192005
RWROKX

REGIONAL WEATHER ROUNDUP
NATIONAL WEATHER SERVICE NEW YORK NY
400 PM EDT SUN OCT 19 2014

NOTE: "FAIR" INDICATES FEW OR NO CLOUDS BELOW 12,000 FEET WITH NO
SIGNIFICANT WEATHER AND/OR OBSTRUCTIONS TO VISIBILITY.

NYZ071-072-176-178-NJZ106-104-192100-
NEW YORK CITY METRO AREA


CITY           SKY/WX    TMP DP  RH WIND       PRES   REMARKS
CENTRAL PARK   SUNNY     51  25  36 VRB6G23   29.96R
LAGUARDIA APRT SUNNY     52  28  39 NW20G35   29.93R
KENNEDY INTL   MOSUNNY   54  23  30 N23G29    29.93R
NEWARK/LIBERTY MOSUNNY   54  25  32 NW23G33   29.94R
BRNX BOT. GARD   N/A    N/A N/A N/A W3        29.92F
TETERBORO      SUNNY     53  25  33 NW18G30   29.93R
$$

NYZ177-179-078>081-192100-
LONG ISLAND NEW YORK

CITY           SKY/WX    TMP DP  RH WIND       PRES   REMARKS
FARMINGDALE    SUNNY     55  30  38 NW13G22   29.90R
ISLIP          PTSUNNY   56  32  40 NW17G23   29.86R
SHIRLEY        NOT AVBL
WESTHAMPTON    SUNNY     55  31  39 NW20G25   29.87R
MONTAUK POINT    N/A     55  33  43 NW14      29.85R
$$

NYZ052-065-067-192100-
HUDSON VALLEY

CITY           SKY/WX    TMP DP  RH WIND       PRES   REMARKS
WHITE PLAINS   MOSUNNY   50  26  39 NW20G29   29.91R
NEWBURGH       MOSUNNY   48  30  49 NW18G29   29.95R
MONTGOMERY     MOSUNNY   50  26  39 NW17G25   29.94R
POUGHKEEPSIE   SUNNY     50  26  39 NW15G26   29.94R
ALBANY         PTSUNNY   46  26  45 W24G33    29.94R
$$

NJZ001-105-106-008-010-013-015-019>022-104-192100-
NEW JERSEY

CITY           SKY/WX    TMP DP  RH WIND       PRES   REMARKS
NEWARK/LIBERTY MOSUNNY   54  25  32 NW23G33   29.94R
TETERBORO      SUNNY     53  25  33 NW18G30   29.93R
CALDWELL       SUNNY     51  24  34 NW17G26   29.95R
MORRISTOWN     SUNNY     52  27  37 N8G23     29.96R
SOMERVILLE     SUNNY     53  26  35 NW12G25   29.95R
SUSSEX         MOSUNNY   50  27  40 NW13G24   29.97R
ANDOVER          N/A     49  27  42 N10G20    29.97R
TRENTON        SUNNY     53  27  36 NW16G24   29.96R
MILLVILLE      SUNNY     55  29  36 NW21G28   29.98R
ATLANTIC CITY  SUNNY     55  30  38 W18G26    29.95R
WRIGHTSTOWN    SUNNY     53  29  39 NW17G23   29.95R
TOMS RIVER     SUNNY     54  27  35 NW10G17   29.95R
BELMAR         SUNNY     54  25  32 NW20G28   29.94R
$$

PAZ047>061-062-071-192100-
EASTERN PENNSYLVANIA

CITY           SKY/WX    TMP DP  RH WIND       PRES   REMARKS
PHILADELPHIA   MOSUNNY   55  27  34 N21G28    29.99R
ALLENTOWN      SUNNY     53  26  35 N14       29.98S
SCRANTON       PTSUNNY   49  26  41 N17       30.00S
$$

CTZ002-004>006-009-010-012-RIZ004-006-007-MAZ004-011-015-192100-
SOUTHERN NEW ENGLAND
 IN CT

CITY           SKY/WX    TMP DP  RH WIND       PRES   REMARKS
BRADLEY INTL   PTSUNNY   51  28  41 NW16      29.87R
HARTFORD       CLOUDY    50  29  44 VRB6G22   29.88R
DANBURY        SUNNY     50  26  39 NW13G25   29.91R
WTRBRY/OXFORD  MOSUNNY   48  27  43 N14G23    29.89R
BRIDGEPORT     SUNNY     55  29  36 NW15      29.88R
MERIDEN        MOSUNNY   52  27  38 NW17G23   29.89R
NEW HAVEN      MOSUNNY   55  27  34 NW13G23   29.89R
CHESTER        FAIR      50  28  43 N12G22    29.87R
GROTON         PTSUNNY   51  31  46 NW15G22   29.84R
WILLIMANTIC    CLOUDY    51  30  44 W8G23     29.86R

 IN RI

CITY           SKY/WX    TMP DP  RH WIND       PRES   REMARKS
PROVIDENCE     PTSUNNY   53  34  48 W14       29.83R
BLOCK ISLAND   PTSUNNY   52  30  43 NW13G21   29.83R
WESTERLY       CLOUDY    52  30  43 NW8G20    29.84R

 IN MA

CITY           SKY/WX    TMP DP  RH WIND       PRES   REMARKS
BOSTON         CLOUDY    52  31  44 NW15G22   29.81R
WORCESTER      PTSUNNY   49  29  46 NW13G28   29.82R
WESTFIELD      CLOUDY    49  29  46 NW16G24   29.88R
PROVINCETOWN   CLOUDY    54  36  50 NW17G24   29.78S
NANTUCKET      CLOUDY    53  38  56 N15G21    29.77R
$$

ANZ330-335-338-340-345-350-353-355-192100-
COASTAL MARINE OBSERVATIONS


STATION/POSITION TIME  SKY/WX   TEMP    WIND        PRES    VSBY  WAVE
                                AIR SEA DIR/SP/G                  HT/PER
                 (UTC)          (F)     (DEG/KT/KT) (MB)    (MI)  (FT/S)
NY HARB ENTRANCE NOT AVBL
4S FIRE IS       2000               64                N/A           4/13
20S FIRE ISLAND  2000            54 64  310/ 19/ 25 1011.7          5/ 5
23SW MTP         2000                                 N/A           4/ 5
HUDSON CANYON    2000            55 66  310/ 21/ 27 1011.0          9/ 7
EXECUTION ROCKS  2000            54 64  320/ 17/ 25   N/A
WESTERN LI SOUND 2000            53     310/ 19/ 25   N/A           2/ 3
CENTRAL LI SOUND 1900            52 65  320/ 17/ 23   N/A           3/ 4
EASTERN LI SOUND 1900            54 64  320/ 17/ 23   N/A
ROBBINS REEF     2000            51     310/ 24/ 29 1012.2
$$


>>>>>>>>>>>>>>>>>>>>>>>>>>>> KEY <<<<<<<<<<<<<<<<<<<<<<<<<<<
>                                                          <
>     SKY/WX - SKY CONDITION/PRESENT WEATHER               <
>     TMP    - TEMPERATURE IN FAHRENHEIT                   <
>     DP     - DEWPOINT IN FAHRENHEIT                      <
>     RH     - RELATIVE HUMIDITY IN PERCENT                <
>     WIND   - DIRECTION AND SPEED IN MPH                  <
>     PRES   - MEAN SEA LEVEL PRESSURE IN INCHES OF HG     <
>     WCI    - WIND CHILL INDEX                            <
>     VSB    - VISIBILITY IN MILES                         <
>     HX     - HEAT INDEX                                  <
>     TC     - TEMPERATURE IN CELSIUS                      <
>     VRB    - VARIABLE WIND DIRECTION                     <
>                                                          <
>>>>>>>>>>>>>>>>>>>>>>>>>>>> KEY <<<<<<<<<<<<<<<<<<<<<<<<<<<




USA.gov is the U.S. government's official web portal to all federal, state and local government web resources and services.